カタログに戻る

USA 400

運用中軍事VLEO
NORAD 61021·PAYLOAD·🇺🇸 United States

打ち上げ Sep 6, 2024 から Vandenberg Space Force Base

Loading…

次のパス (今後24時間)

TLE

古いSource: Mike McCants

元期: Aug 25, 2026, 23:37 UTC

1 61021U 24160A   26237.98441774 0.00000000  00000-0  00000-0 0    00
2 61021  70.0150 196.6992 0003000 184.6486 175.3513 14.96713321    09

AllMySatでUSA 400をリアルタイム追跡

Download on the App Store